TimePDT,TemperatureF,Dew PointF,Humidity,Sea Level PressureIn,VisibilityMPH,Wind Direction,Wind SpeedMPH,Gust SpeedMPH,PrecipitationIn,Events,Conditions,WindDirDegrees,DateUTC
12:15 AM,48.2,26.6,43,30.19,10.0,Calm,Calm,-,N/A,,Clear,0,2013-10-06 07:15:00
12:35 AM,48.2,26.6,43,30.18,10.0,Calm,Calm,-,N/A,,Clear,0,2013-10-06 07:35:00
12:55 AM,46.4,26.6,46,30.18,10.0,Calm,Calm,-,N/A,,Clear,0,2013-10-06 07:55:00
1:15 AM,46.4,26.6,46,30.18,10.0,Calm,Calm,-,N/A,,Clear,0,2013-10-06 08:15:00
1:35 AM,46.4,26.6,46,30.18,10.0,Calm,Calm,-,N/A,,Clear,0,2013-10-06 08:35:00
1:55 AM,46.4,26.6,46,30.18,10.0,Calm,Calm,-,N/A,,Clear,0,2013-10-06 08:55:00
2:15 AM,46.4,26.6,46,30.18,10.0,Calm,Calm,-,N/A,,Clear,0,2013-10-06 09:15:00
2:35 AM,46.4,26.6,46,30.17,10.0,Calm,Calm,-,N/A,,Clear,0,2013-10-06 09:35:00
2:55 AM,46.4,26.6,46,30.17,10.0,Calm,Calm,-,N/A,,Clear,0,2013-10-06 09:55:00
3:15 AM,44.6,26.6,49,30.16,10.0,Calm,Calm,-,N/A,,Clear,0,2013-10-06 10:15:00
3:35 AM,44.6,26.6,49,30.16,10.0,Calm,Calm,-,N/A,,Clear,0,2013-10-06 10:35:00
3:55 AM,44.6,26.6,49,30.16,10.0,Calm,Calm,-,N/A,,Clear,0,2013-10-06 10:55:00
4:15 AM,44.6,26.6,49,30.15,10.0,Calm,Calm,-,N/A,,Clear,0,2013-10-06 11:15:00
4:35 AM,44.6,26.6,49,30.15,10.0,Calm,Calm,-,N/A,,Clear,0,2013-10-06 11:35:00
4:55 AM,44.6,26.6,49,30.15,10.0,Calm,Calm,-,N/A,,Clear,0,2013-10-06 11:55:00
5:15 AM,44.6,26.6,49,30.15,10.0,Calm,Calm,-,N/A,,Clear,0,2013-10-06 12:15:00
5:35 AM,42.8,26.6,53,30.15,10.0,Calm,Calm,-,N/A,,Clear,0,2013-10-06 12:35:00
5:55 AM,42.8,26.6,53,30.16,10.0,Calm,Calm,-,N/A,,Clear,0,2013-10-06 12:55:00
6:15 AM,44.6,26.6,49,30.16,10.0,Calm,Calm,-,N/A,,Clear,0,2013-10-06 13:15:00
6:35 AM,44.6,26.6,49,30.16,10.0,Calm,Calm,-,N/A,,Clear,0,2013-10-06 13:35:00
6:55 AM,42.8,26.6,53,30.17,10.0,Calm,Calm,-,N/A,,Clear,0,2013-10-06 13:55:00
7:15 AM,44.6,26.6,49,30.17,10.0,Calm,Calm,-,N/A,,Clear,0,2013-10-06 14:15:00
7:35 AM,44.6,26.6,49,30.17,10.0,Calm,Calm,-,N/A,,Clear,0,2013-10-06 14:35:00
7:55 AM,46.4,28.4,50,30.18,10.0,Calm,Calm,-,N/A,,Clear,0,2013-10-06 14:55:00
8:15 AM,50.0,28.4,43,30.18,10.0,Calm,Calm,-,N/A,,Clear,0,2013-10-06 15:15:00
8:35 AM,55.4,30.2,38,30.19,10.0,Calm,Calm,-,N/A,,Clear,0,2013-10-06 15:35:00
8:55 AM,59.0,32.0,36,30.19,10.0,Calm,Calm,-,N/A,,Clear,0,2013-10-06 15:55:00
9:15 AM,64.4,33.8,32,30.19,10.0,Calm,Calm,-,N/A,,Clear,0,2013-10-06 16:15:00
9:35 AM,69.8,32.0,25,30.19,10.0,Calm,Calm,-,N/A,,Clear,0,2013-10-06 16:35:00
9:55 AM,71.6,24.8,17,30.18,10.0,Calm,Calm,-,N/A,,Clear,0,2013-10-06 16:55:00
10:15 AM,75.2,24.8,15,30.18,10.0,Calm,Calm,-,N/A,,Clear,0,2013-10-06 17:15:00
10:35 AM,77.0,19.4,12,30.18,10.0,Calm,Calm,-,N/A,,Clear,0,2013-10-06 17:35:00
10:55 AM,77.0,21.2,12,30.18,10.0,SSW,3.5,-,N/A,,Clear,210,2013-10-06 17:55:00
11:15 AM,77.0,21.2,12,30.17,10.0,SSW,3.5,-,N/A,,Clear,210,2013-10-06 18:15:00
11:35 AM,78.8,21.2,12,30.17,10.0,WSW,6.9,-,N/A,,Clear,250,2013-10-06 18:35:00
11:55 AM,80.6,23.0,12,30.16,10.0,SSW,4.6,-,N/A,,Clear,210,2013-10-06 18:55:00
12:15 PM,80.6,21.2,11,30.16,10.0,West,8.1,-,N/A,,Clear,270,2013-10-06 19:15:00
12:35 PM,80.6,19.4,10,30.16,10.0,West,8.1,-,N/A,,Clear,270,2013-10-06 19:35:00
12:55 PM,80.6,21.2,11,30.15,10.0,West,4.6,-,N/A,,Clear,260,2013-10-06 19:55:00
1:15 PM,80.6,21.2,11,30.15,10.0,West,5.8,-,N/A,,Clear,260,2013-10-06 20:15:00
1:35 PM,80.6,21.2,11,30.14,10.0,SW,5.8,-,N/A,,Clear,220,2013-10-06 20:35:00
1:55 PM,82.4,19.4,10,30.13,10.0,WSW,5.8,-,N/A,,Clear,240,2013-10-06 20:55:00
2:15 PM,82.4,21.2,10,30.13,10.0,SSW,3.5,-,N/A,,Clear,200,2013-10-06 21:15:00
2:35 PM,80.6,21.2,11,30.12,10.0,SW,5.8,-,N/A,,Clear,230,2013-10-06 21:35:00
2:55 PM,80.6,23.0,12,30.12,10.0,WSW,8.1,-,N/A,,Clear,250,2013-10-06 21:55:00
3:15 PM,80.6,23.0,12,30.12,10.0,WSW,5.8,-,N/A,,Clear,240,2013-10-06 22:15:00
3:35 PM,80.6,24.8,13,30.11,10.0,WSW,3.5,-,N/A,,Clear,250,2013-10-06 22:35:00
3:55 PM,80.6,24.8,13,30.10,10.0,WSW,6.9,-,N/A,,Clear,240,2013-10-06 22:55:00
4:15 PM,78.8,23.0,13,30.10,10.0,WSW,3.5,-,N/A,,Clear,240,2013-10-06 23:15:00
4:35 PM,80.6,24.8,13,30.10,10.0,WSW,6.9,-,N/A,,Clear,240,2013-10-06 23:35:00
4:55 PM,78.8,23.0,13,30.09,10.0,WSW,4.6,-,N/A,,Clear,250,2013-10-06 23:55:00
5:15 PM,77.0,24.8,14,30.09,10.0,Calm,Calm,-,N/A,,Clear,0,2013-10-07 00:15:00
5:35 PM,77.0,24.8,14,30.09,10.0,Calm,Calm,-,N/A,,Clear,0,2013-10-07 00:35:00
5:55 PM,75.2,26.6,17,30.09,10.0,Calm,Calm,-,N/A,,Clear,0,2013-10-07 00:55:00
6:15 PM,71.6,26.6,19,30.09,10.0,Calm,Calm,-,N/A,,Clear,0,2013-10-07 01:15:00
6:35 PM,66.2,32.0,28,30.09,10.0,Calm,Calm,-,N/A,,Clear,0,2013-10-07 01:35:00
6:55 PM,66.2,32.0,28,30.09,10.0,Calm,Calm,-,N/A,,Clear,0,2013-10-07 01:55:00
7:15 PM,62.6,32.0,32,30.09,10.0,Calm,Calm,-,N/A,,Clear,0,2013-10-07 02:15:00
7:35 PM,59.0,32.0,36,30.09,10.0,Calm,Calm,-,N/A,,Clear,0,2013-10-07 02:35:00
7:55 PM,59.0,32.0,36,30.09,10.0,Calm,Calm,-,N/A,,Clear,0,2013-10-07 02:55:00
8:15 PM,57.2,32.0,38,30.08,10.0,Calm,Calm,-,N/A,,Clear,0,2013-10-07 03:15:00
8:35 PM,55.4,30.2,38,30.08,10.0,Calm,Calm,-,N/A,,Clear,0,2013-10-07 03:35:00
8:55 PM,55.4,32.0,41,30.08,10.0,Calm,Calm,-,N/A,,Clear,0,2013-10-07 03:55:00
9:15 PM,55.4,30.2,38,30.08,10.0,Calm,Calm,-,N/A,,Clear,0,2013-10-07 04:15:00
9:35 PM,53.6,28.4,38,30.08,10.0,Calm,Calm,-,N/A,,Clear,0,2013-10-07 04:35:00
9:55 PM,53.6,28.4,38,30.08,10.0,Calm,Calm,-,N/A,,Clear,0,2013-10-07 04:55:00
10:15 PM,51.8,30.2,44,30.08,10.0,Calm,Calm,-,N/A,,Clear,0,2013-10-07 05:15:00
10:35 PM,51.8,30.2,44,30.08,10.0,Calm,Calm,-,N/A,,Clear,0,2013-10-07 05:35:00
10:55 PM,50.0,28.4,43,30.07,10.0,Calm,Calm,-,N/A,,Clear,0,2013-10-07 05:55:00
11:15 PM,50.0,28.4,43,30.07,10.0,Calm,Calm,-,N/A,,Clear,0,2013-10-07 06:15:00
11:35 PM,50.0,28.4,43,30.07,10.0,Calm,Calm,-,N/A,,Clear,0,2013-10-07 06:35:00
11:55 PM,50.0,28.4,43,30.07,10.0,Calm,Calm,-,N/A,,Clear,0,2013-10-07 06:55:00